This demonstration page uses our WeatherBlox Daily Observations layout. Learn more.

Left ArrowRight Arrow

Hourly Observations for October 15, 2022

Temp ( °F °C ) Dew Point ( °F °C ) Humidity (%) Winds ( mph kmh ) Pressure ( in mb ) Visibility ( mi km ) Precip ( " mm )
12:56 am 00:56 Clear 45 7.2 34 1.1 65 65 Calm 29.91 1013 10 16 0.00 0.00
1:56 am 01:56 Clear 40 4.4 35 1.7 83 83 S 7 11 29.94 1014 10 16 0.00 0.00
2:56 am 02:56 Clear 40 4.4 33 0.6 76 76 SSW 6 9 29.94 1014 10 16 0.00 0.00
3:56 am 03:56 Clear 41 5 35 1.7 79 79 SSW 7 11 29.95 1014 10 16 0.00 0.00
4:56 am 04:56 Clear 39 3.9 35 1.7 86 86 SW 6 9 29.95 1014 10 16 0.00 0.00
6:56 am 06:56 Mostly Cloudy 44 6.7 37 2.8 76 76 SW 6 9 29.95 1014 10 16 0.00 0.00
7:56 am 07:56 Sunny 44 6.7 37 2.8 76 76 SSW 5 7 29.95 1014 10 16 0.00 0.00
8:56 am 08:56 Sunny 49 9.4 37 2.8 63 63 W 8 13 29.98 1015 10 16 0.00 0.00
9:56 am 09:56 Sunny 59 15 38 3.3 45 45 W 15 24 29.98 1015 10 16 0.00 0.00
10:56 am 10:56 Sunny 62 16.7 40 4.4 44 44 WNW 13 20 29.98 1015 10 16 0.00 0.00
11:56 am 11:56 Sunny 66 18.9 41 5 40 40 WNW 14 22 30.00 1016 10 16 0.00 0.00
12:56 pm 12:56 Sunny 70 21.1 42 5.6 36 36 NW 18 30 29.99 1016 10 16 0.00 0.00
1:56 pm 13:56 Sunny 70 21.1 42 5.6 36 36 NW 13 20 29.99 1016 10 16 0.00 0.00
2:56 pm 14:56 Sunny 70 21.1 42 5.6 36 36 NNW 15 24 29.98 1015 10 16 0.00 0.00
3:56 pm 15:56 Sunny 72 22.2 41 5 33 33 NNW 20 31 29.99 1016 10 16 0.00 0.00
4:56 pm 16:56 Sunny 71 21.7 40 4.4 32 32 NNW 20 31 30.00 1016 10 16 0.00 0.00
5:56 pm 17:56 Mostly Sunny 69 20.6 40 4.4 34 34 N 16 26 30.01 1016 10 16 0.00 0.00
6:56 pm 18:56 Clear 65 18.3 41 5 41 41 NNW 9 15 30.04 1017 10 16 0.00 0.00
7:56 pm 19:56 Clear 62 16.7 41 5 46 46 NNW 8 13 30.07 1018 10 16 0.00 0.00
8:56 pm 20:56 Clear 60 15.6 41 5 49 49 NNW 9 15 30.09 1019 10 16 0.00 0.00
9:56 pm 21:56 Clear 56 13.3 41 5 57 57 NW 7 11 30.12 1020 10 16 0.00 0.00
10:56 pm 22:56 Clear 54 12.2 41 5 61 61 NNW 6 9 30.14 1021 10 16 0.00 0.00
11:56 pm 23:56 Partly Cloudy 52 11.1 41 5 66 66 NW 8 13 30.14 1021 10 16 0.00 0.00

Powered by AerisWeather